{"data":{"norad_id":62219,"epoch":"2026-09-21T07:14:03.239232Z","epoch_age_seconds":108971,"freshness":"FRESH","line1":"1 62219U 24231B   26264.30142638  .00103173  00000+0  84459-3 0  9996","line2":"2 62219  53.1575 217.0381 0001345  62.7268 297.3887 15.69747142104133","mean_motion":15.69747142,"eccentricity":0.0001345,"inclination_deg":53.1575,"raan_deg":217.0381,"arg_perigee_deg":62.7268,"mean_anomaly_deg":297.3887,"bstar":0.00084459,"rev_number":10413,"period_min":91.734519622397,"perigee_km":358.71423794948,"apogee_km":360.52669470792,"semimajor_km":6737.7574663287,"source":"CELESTRAK","updated_at":"2026-09-22T09:00:49.544254Z"}}